Lobo

Go HERE for most recent data if this page is not up to date.

Jump to table bottom
Date/Time Temp deg F RH % 24 Hr Snow (in) Snow Depth (in) H2O (in)
12/14 12:00 12.9 64 0.6 29.9 0.00
12/14 11:00 12.4 67 0.7 30.2 0.00
12/14 10:00 10.3 71 0.7 30.3 0.00
12/14 09:00 9.6 69 0.8 30.5 0.00
12/14 08:00 9.3 74 0.7 30.4 0.00
12/14 07:00 9.9 71 0.7 30.4 0.00
12/14 06:00 9.3 65 0.7 30.4 0.00
12/14 05:00 9.3 74 0.5 30.3 0.00
12/14 04:00 10.1 71 0.5 30.1 0.00
12/14 03:00 11.5 76 0.4 30.1 0.00
12/14 02:00 12.3 86 0.6 29.9 0.00
12/14 01:00 12.1 85 0.2 29.6 0.01
12/14 00:00 12.2 88 0.5 29.8 0.01
12/13 23:00 12.5 87 0.2 29.8 0.00
12/13 22:00 13.2 78 0.2 30.2 0.00
12/13 21:00 13.6 77 0.3 29.5 0.00
12/13 20:00 13.5 70 0.3 30.5 0.00
12/13 19:00 13.6 68 0.3 30.5 0.00
12/13 18:00 13.6 67 0.3 30.5 0.00
12/13 17:00 14.7 67 0.2 30.5 0.00
12/13 16:00 15.5 66 2.4 30.4 0.00
12/13 15:00 16.3 73 2.3 30.3 0.00
12/13 14:00 18.1 67 2.2 30.1 0.00
12/13 13:00 18.0 76 2.2 30.2 0.00
12/13 12:00 19.4 64 2.2 30.3 0.00
12/13 11:00 17.4 69 2.4 30.7 0.00
12/13 10:00 16.4 80 2.4 30.7 0.00
12/13 09:00 15.5 74 2.4 30.8 0.00
12/13 08:00 15.6 75 2.3 30.8 0.00
12/13 07:00 15.7 74 2.4 30.6 0.00
12/13 06:00 16.2 72 2.5 31.0 0.00
12/13 05:00 16.6 77 2.5 31.0 0.00
12/13 04:00 16.8 80 2.6 31.2 0.00
12/13 03:00 17.4 78 2.6 31.3 0.00
12/13 02:00 18.3 83 2.6 31.3 0.02
12/13 01:00 19.3 83 2.6 31.3 0.01
12/13 00:00 19.5 84 2.6 31.4 0.00
.